Regional Weather Roundup
Issued by NWS Pendleton, OR

Home | Current Version | Previous Version | Text Only | Print | Product List | Glossary On
Versions: 1 2 3 4 5 6 7 8 9 10 11 12 13 14 15 16 17 18 19 20 21 22 23 24 25 26 27 28 29 30 31 32 33 34 35 36 37 38 39 40 41 42 43 44 45 46 47 48 49 50
000
ASUS46 KPDT 180525
RWRPDT
PENDLETON REGIONAL WEATHER ROUNDUP
NATIONAL WEATHER SERVICE PENDLETON OREGON
1000 PM PDT THU APR 17 2014

NOTE: FAIR INDICATES FEW OR NO CLOUDS BELOW 12,000 FEET WITH NO
SIGNIFICANT WEATHER AND/OR OBSTRUCTIONS TO VISIBILITY.

# INDICATES UNOFFICIAL STATION AND DATA

WAZ520-180610-
EAST SLOPES OF WASHINGTON CASCADES

CITY            SKY/WX      TMP DP  RH  WIND    PRES   REMARKS
#CLE ELUM HS    N/A         41  40  96  CALM    29.71S
#CLE ELUM 2NW   N/A         41  40  96  SW5     N/A
#CLE ELUM LAKE  N/A         40  37  89  N1      29.76R
#CLIFFDEL 2NW   N/A         39  36  89  CALM    N/A
#GLENWOOD       N/A         45  42  89  S1      29.84R
#MANASTASH CYN  N/A         37  33  85  CALM    29.74R
#NELSON         N/A         41  40  96  CALM    29.79R
#NELSON 3SW     N/A         37  36  96  CALM    29.97R
#NILE           N/A         43  36  76  W1      29.09R
#RONALD 2NW     N/A         41  38  89  W3      29.65R
#TEANAWAY 4NE   N/A         42  42  100 SW1     N/A
#TROUT LAKE HS  N/A         44  42  93  SW2     N/A
#TROUT LAKE 1NE N/A         43  40  89  NW3     29.86R
$$

WAZ521-180610-
SIMCOE HIGHLANDS

CITY            SKY/WX      TMP DP  RH  WIND    PRES   REMARKS
#BICKLETON HS   N/A         44  36  73  W15G25  29.82S WCI 37
#CENTERVILLE 4W N/A         46  42  86  NW21    29.59R WCI 38
#CENTERVILLE 1SWN/A         45  40  82  W17     29.83R WCI 38
#GOLDENDALE 1NE N/A         48  41  77  S7      N/A
#GOLDENDALE 1S  N/A         46  43  89  W13     28.02R WCI 40
#GOLDENDALE 5WNWN/A         46  41  83  W15     29.83R WCI 40
#GOODNOE HILLS  N/A         48  44  86  W12     29.77R WCI 43
#LYLE 6NE       N/A         46  43  89  SW9     29.85R
$$

WAZ026-180610-
KITTITAS VALLEY

CITY            SKY/WX      TMP DP  RH  WIND    PRES   REMARKS
ELLENSBURG AP   PTCLDY      44  39  82  W7      29.74R
#ELLENSBURG CWU N/A         45  41  86  NW3     29.70R
#ELLENSBURG 3NE N/A         44  40  86  W2      29.75R
#ELLENSBURG     N/A         48  45  89  SW1     N/A
#ELLENSBURG 1E  N/A         45  40  82  CALM    N/A
#KITTITAS 4N    N/A         40  34  79  CALM    29.90R
#KITTITAS 3S    N/A         43  39  86  CALM    29.73R
#THORP 6N       N/A         41  39  93  NW6     29.77S
$$

WAZ027-180610-
YAKIMA VALLEY

CITY            SKY/WX      TMP DP  RH  WIND    PRES   REMARKS
YAKIMA AIRPORT  PTCLDY      53  36  52  SW7     29.77R
YAKIMA-VAGABOND MOCLDY      51  36  56  W12     29.77R
#COWICHE 1N     N/A         47  37  68  SW5     29.92S
#DONALD 2NE     N/A         52  34  50  SE3     30.10S
#GRANDVIEW      N/A         52  41  66  W2      29.79S
#MABTON         N/A         54  43  66  S7      29.79R
#MOXEE 2E       N/A         50  30  46  SW10    29.72R
#NACHES 2SW     N/A         47  39  74  W7      29.75R
#OUTLOOK DOT    N/A         55  39  55  W8      N/A
#SELAH 8E       N/A         48  34  58  W10     N/A
#TERRACE HTS    N/A         50  37  61  CALM    29.73R
#TOPPENISH      N/A         53  41  64  W8      29.69R
#WAPATO 4NE     N/A         52  34  50  SE3     30.10S
#WEST VALLEY    N/A         51  38  61  N1      29.78
#W YAKIMA       N/A         50  37  61  SW1     29.75S
#WHITE SWAN 5E  N/A         50  40  68  SW9     29.78S
#WILEY CITY 3W  N/A         42  25  51  CALM    29.77R
$$

WAZ028-180610-
LOWER COLUMBIA BASIN...WASHINGTON

CITY            SKY/WX      TMP DP  RH  WIND    PRES   REMARKS
PASCO           PTCLDY      54  48  80  S8      29.81S
PROSSER AWOS    N/A         54  43  66  S14     29.81S
RICHLAND AWOS   MOCLDY      54  46  74  S5      29.81R
#BASIN CITY 5SW N/A         51  48  89  S14     29.76S
#BENTON CITY    N/A         52  44  74  SW10    29.69R
#CONNELL 5N     N/A         49  46  89  SW12    29.75S WCI 44
#CONNELL 5NW    N/A         49  46  89  S15     29.72S WCI 43
#ELTOPIA        N/A         52  48  86  S7      29.75S
#ELTOPIA 6NW    N/A         50  47  89  S6      28.75R
#KENNEWICK 3S   N/A         51  48  89  SW6     29.80S
#PASCO-BROADMOORN/A         53  48  83  CALM    29.71R
#PATERSON       N/A         51  47  86  SW9     29.80R
#PROSSER        N/A         54  40  59  SW17G26 29.78S
#SAGEMOOR 2W    N/A         50  47  89  W6      29.63S
#TOUCHET 2S     N/A         53  47  80  SW8     29.79S
#WEST PASCO     N/A         53  47  80  CALM    29.77R
$$

WAZ029-180610-
FOOTHILLS OF THE BLUES...WASHINGTON

CITY            SKY/WX      TMP DP  RH  WIND    PRES   REMARKS
WALLA WALLA AP  CLOUDY      53  46  77  S12     29.82S
#COLLEGE PLACE  N/A         54  45  71  SE7     29.83S
#LOWDEN 2SE     N/A         55  48  77  SW5     29.78S
#PLEASANT VIEW 1N/A         46  44  93  S13     29.82F WCI 40
#PRESCOTT       N/A         50  46  86  SW1     29.79F
#SUDBURY        N/A         54  N/A N/A S3      N/A
#WHITMAN COLLEGEN/A         53  47  80  S5      29.86S
#WAITSBURG 8N   N/A         48  40  74  S13     29.65S WCI 43
#WALLA WALLA 5E N/A         53  46  77  S14     N/A
#WHITMAN MISSIONN/A         54  49  83  S3      29.82F
$$

WAZ030-180610-
BLUE MOUNTAINS...WASHINGTON

CITY            SKY/WX      TMP DP  RH  WIND    PRES   REMARKS
$$

ORZ009-041-WAZ024-180610-
COLUMBIA RIVER GORGE

CITY            SKY/WX      TMP DP  RH  WIND    PRES   REMARKS
HOOD RIVER AP   LGT RAIN    50  45  83  W14G28  29.88R
THE DALLES AP   PTCLDY      52  45  77  W8      29.86R
#ARLINGTON AIRPON/A         50  44  80  W8      25.27
#ARLINGTON HS   N/A         53  43  69  NE8     29.74R
#CELILO DOT     N/A         54  40  59  N6      N/A
#MARYHILL 2W    N/A         51  44  77  S13     N/A
#MOSIER 1S      N/A         48  41  77  W13     29.91R WCI 43
#MURDOCK        N/A         53  48  83  W9      29.90R
#RUFUS DOT      N/A         44  40  86  S2      N/A

$$

ORZ510-180610-
NORTH CENTRAL OREGON

CITY            SKY/WX      TMP DP  RH  WIND    PRES   REMARKS
#CHENOWITH 1W   N/A         45  N/A N/A W7      N/A
#COW CYN RST AREN/A         44  37  76  SW10    N/A
#GRASS VALLEY   N/A         45  39  79  SW3     N/A
#GRASS VALLEY 1SN/A         45  39  79  SW12    29.87R WCI 39
#KENT DOT       N/A         46  33  60  SW14    N/A    WCI 40
#MAUPIN SCHOOL  N/A         52  39  61  W5      29.92R
#SHANIKO 5WSW   N/A         41  32  70  SW13    N/A    WCI 34
#SHANIKO 4NW    N/A         41  36  82  SW5     29.85S
#TYGH VALLEY 2NEN/A         49  41  74  CALM    29.87R
#WAPANITIA AIRPON/A         46  39  76  W7      29.89
#WASCO DOT      N/A         48  42  80  W7      N/A
#WASCO 5NE      N/A         47  41  79  SW5     29.84R
$$

ORZ511-180610-
CENTRAL OREGON

CITY            SKY/WX      TMP DP  RH  WIND    PRES   REMARKS
BEND AIRPORT    CLOUDY      45  34  65  SW10    29.92R
MADRAS AIRPORT  CLOUDY      45  37  73  S7      29.92R
REDMOND AIRPORT CLOUDY      46  35  65  W9      29.90R
#BEND 6E        N/A         45  32  60  CALM    29.85R
#BEND 1SW       N/A         42  32  67  SW1     N/A
#BEND-AWBREY    N/A         44  35  70  NE3     29.89R
#BEND-KIM LN    N/A         44  35  70  S3      29.87R
#CROOKED RVR RANN/A         47  37  68  W5      29.90R
#CULVER         N/A         47  35  63  SW8     29.88R
#LAKE BILLY CHINN/A         48  17  29  SW6     29.97R
#POWELL BUTTE   N/A         44  36  73  N1      29.57R
#PRINEVILLE AIR N/A         46  37  71  W1      29.90R
#PRINEVILLE 3N  N/A         46  37  71  CALM    29.86R
#WARM SPRINGS   N/A         51  40  66  CALM    29.87R


ORZ509-180610-
EAST SLOPES OF OREGON CASCADES

CITY            SKY/WX      TMP DP  RH  WIND    PRES   REMARKS
#BLUE BOX PASS  N/A         36  -12 12  NW5     N/A
#CAMP SHERMAN   N/A         41  37  86  CALM    29.93R
#LA PINE DOT    N/A         40  32  73  W3      N/A
#LA PINE 4NW    N/A         40  32  73  CALM    29.99R
#LAVA BUTTE DOT N/A         39  33  79  SW1     N/A
#SISTERS AIRPOR N/A         45  40  82  N15G26  29.92R WCI 38
#SISTERS ODOT   N/A         45  N/A N/A CALM    N/A
#SISTERS 3N     N/A         44  32  62  CALM    29.95S
#SUNRIVER       N/A         42  35  76  SE3     29.82R
#SUNRIVER AP    N/A         41  34  76  SW7     29.89R
#SUTTLE LK DOT  N/A         34  34  100 W39G77  N/A    WCI 19
#TUMALO 3W      N/A         44  33  65  E2      29.78R
#WANOGA BUTTE D N/A         32  30  92  W14G25  N/A    WCI 22

$$

ORZ044-180610-
LOWER COLUMBIA BASIN...OREGON

CITY            SKY/WX      TMP DP  RH  WIND    PRES   REMARKS
HERMISTON       CLOUDY      50  47  89  S18     29.80F
#BOARDMAN SCHOOLN/A         51  47  86  CALM    29.81S
#BOARDMAN 3W    N/A         51  48  89  SW6     29.53S
#BOARDMAN 8SW   N/A         51  47  86  S5      29.82R
#IONE SCHOOL    N/A         53  42  66  S2      29.83R
#IRRIGON 4NW    N/A         52  49  89  S16     N/A
#UMATILLA       N/A         53  45  74  SW2     29.78S
$$

ORZ507-180610-
NORTHERN FOOTHILLS OF THE BLUES

CITY            SKY/WX      TMP DP  RH  WIND    PRES   REMARKS
PENDLETON AIRPT CLOUDY      47  46  96  S6      29.82F
#ADAMS 3WNW     N/A         46  44  93  CALM    29.83S
#ATHENA         N/A         48  45  89  SW2     29.85S
#HELIX SCHOOL   N/A         47  45  93  S6      29.82S
#HELIX 3N       N/A         46  44  93  S12     29.80S WCI 40
#M-F FERNDALE   N/A         52  47  83  CALM    29.82S
#M-F GROVE ELEM N/A         53  44  71  CALM    29.82R
#M-FREEWATER 5SEN/A         50  45  83  CALM    29.83S
#PDT AQUATIC CTRN/A         50  48  93  CALM    29.84S
#PENDLETON DNTN N/A         49  46  89  CALM    29.80S
#PDT SUNRIDGE   N/A         48  45  89  CALM    29.84S
#PILOT ROCK     N/A         49  41  74  S8      29.85S
#TUTUILLA       N/A         47  44  89  CALM    29.77S
#UMAPINE 2E     N/A         51  47  86  SE3     29.74F
#WESTON SCHOOL  N/A         49  43  80  SW8     29.88S

$$

ORZ508-180610-
SOUTHERN FOOTHILLS OF THE BLUES

CITY            SKY/WX      TMP DP  RH  WIND    PRES   REMARKS
LEXINGTON       CLOUDY      52  43  71  S10     29.86R
#AJAX           N/A         49  37  63  N21G35  29.85R WCI 42
#CONDON SCHOOL  N/A         46  40  79  SW12    29.83R WCI 40
#CONDON 5W      N/A         43  36  76  SW12    29.83R WCI 37
#FOSSIL SCHOOL  N/A         47  38  71  W1      29.86R
#HEPPNER 4NE    N/A         45  40  82  S6      29.84R
#LEXINGTON 2SE  N/A         50  43  77  SE5     29.81R
#MIKKALO        N/A         51  38  61  W17G24  29.83R
#OLEX 4N        N/A         52  42  69  SW17G24 29.83R
#RUGGS 5NE      N/A         45  40  82  SW6     30.07S
#RUGGS 2SW      N/A         47  39  74  W9      29.90R

$$

ORZ502-503-180610-
BLUE MOUNTAINS

CITY            SKY/WX      TMP DP  RH  WIND    PRES   REMARKS
MEACHAM         MOCLDY      41  39  93  CALM    29.85R
#BATTLE MTN DOT N/A         39  39  100 S2      N/A
#HARDMAN 10S    N/A         39  36  89  S3      29.93R
#HEPPNER 15SE   N/A         39  37  92  CALM    29.75R
#LADD CYN SMT   N/A         41  39  93  NE2     N/A
#LADD CREEK ODOTN/A         43  42  96  CALM    N/A
#LONG CREEK HS  N/A         44  42  93  SW8     29.83R
#N POWDER DOT   N/A         44  42  93  NE8     N/A
#TOLLGATE       N/A         37  36  96  SW12    29.80F
#TOLLGATE 9W    N/A         41  41  100 SE3     N/A
#TROY SCHOOL    N/A         47  44  89  CALM    29.69S
#UKIAH          N/A         43  40  89  S1      29.92R
#WESTON 4E      N/A         44  42  93  SW7     29.78F
$$

ORZ505-180610-
JOHN DAY BASIN

CITY            SKY/WX      TMP DP  RH  WIND    PRES   REMARKS
JOHN DAY        MOCLDY      45  43  93  CALM    29.90R
#JOHN DAY KJDY  N/A         48  43  83  CALM    29.86R
#DAYVILLE SCHOOLN/A         47  44  89  S1      29.88R
#MONUMENT HS    N/A         47  43  86  CALM    29.84R
#MT. VERNON 5SE N/A         42  40  93  CALM    29.85R
$$

ORZ506-180610-
OCHOCO AND JOHN DAY HIGHLANDS

CITY            SKY/WX      TMP DP  RH  WIND    PRES   REMARKS
#ANTONE         N/A         32  N/A N/A CALM    N/A
#BUCK CREEK DOT N/A         43  43  100 SW9     N/A
#HORSE RIDGE DO N/A         41  32  70  SW3     N/A
#KEYES SMT DOT  N/A         40  35  82  W7      N/A
#PAULINA SCHOOL N/A         47  43  86  CALM    29.91R
#PINE MTN OBS   N/A         33  30  89  NW5     N/A
#PRAIRIE CITY   N/A         39  38  96  CALM    29.98R
#SENECA 9NW     N/A         39  38  96  CALM    29.90R
$$

ORZ049-180610-
GRANDE RONDE VALLEY

CITY            SKY/WX      TMP DP  RH  WIND    PRES   REMARKS
LA GRANDE       CLOUDY      46  37  71  CALM    29.85R
#COVE           N/A         45  44  96  CALM    29.80R
#COVE SCHOOL    N/A         45  42  89  E2      29.85S
#COVE 6NW       N/A         45  41  86  CALM    29.90S
#ELGIN 3N       N/A         45  41  86  CALM    29.59S
#ELGIN 1E       N/A         46  42  86  CALM    N/A
#IMBLER SCHOOL  N/A         46  40  79  CALM    29.83S
#ISLAND CITY 4N N/A         45  43  93  SW6     29.81R
#LADD CYN DOT   N/A         45  42  89  SE6     N/A
#LA GRANDE ELEM N/A         45  42  89  CALM    29.85S
#UNION 1S       N/A         46  43  89  CALM    29.76R
$$

ORZ050-180610-
WALLOWA COUNTY

CITY            SKY/WX      TMP DP  RH  WIND    PRES   REMARKS
JOSEPH AIRPORT  LGT DRIZZLE 41  39  93  S3      29.86R
#ENTERPRISE HS  N/A         45  39  79  N5      29.87R
#IMNAHA SCHOOL  N/A         49  42  77  CALM    29.79R
#JOSEPH 3N      N/A         41  38  89  SE2     29.88S
#LOSTINE        N/A         44  38  79  CALM    29.64F
#MT HOWARD 8000 N/A         30  28  92  W7      29.83S
#PROMISE 1S     N/A         42  39  89  E5      29.91F
#SHEEP RDG 7000 N/A         30  29  96  CALM    29.83S
#WALLOWA SCHOOL N/A         44  41  89  CALM    30.77R



$$



USA.gov is the U.S. government's official web portal to all federal, state and local government web resources and services.